GTYEY EDLV-EDDG

Flight info

Callsign GTYEY
Flight time 0h 47m
Altitude 2500
Route VFR
Aircraft C172/L-V/N

Departure

Time 2026-05-04 11:45
Airport Weeze (Niederrhein) Airport (EDLV)

Arrival

Time 2026-05-04 12:32
Airport Münster Osnabrück Airport (EDDG)
Time Latitude Longitude Altitude Speed Heading
2026-05-04 11:33 51.59999 6.14658 102 ft 0 kts 94°
2026-05-04 11:40 51.60044 6.14838 105 ft 15 kts 91°
2026-05-04 11:41 51.60038 6.15043 108 ft 16 kts 91°
2026-05-04 11:41 51.60035 6.15197 108 ft 12 kts 93°
2026-05-04 11:41 51.60031 6.15341 109 ft 13 kts 92°
2026-05-04 11:41 51.60052 6.15458 111 ft 11 kts
2026-05-04 11:42 51.60121 6.15463 109 ft 0 kts
2026-05-04 11:42 51.60139 6.15464 109 ft 9 kts
2026-05-04 11:43 51.60218 6.15437 107 ft 12 kts 285°
2026-05-04 11:43 51.60219 6.15410 107 ft 0 kts 269°
2026-05-04 11:43 51.60222 6.15343 107 ft 18 kts 271°
2026-05-04 11:43 51.60232 6.14882 105 ft 61 kts 270°
2026-05-04 11:44 51.60241 6.14261 257 ft 56 kts 265°
2026-05-04 11:44 51.60213 6.13553 340 ft 66 kts 253°
2026-05-04 11:44 51.60289 6.12858 491 ft 66 kts 300°
2026-05-04 11:44 51.60690 6.12337 545 ft 80 kts 331°
2026-05-04 11:45 51.61228 6.12254 691 ft 77 kts
2026-05-04 11:45 51.61701 6.12713 809 ft 80 kts 41°
2026-05-04 11:45 51.62062 6.13363 970 ft 79 kts 44°
2026-05-04 11:45 51.62458 6.13995 1113 ft 79 kts 41°
2026-05-04 11:46 51.62835 6.14636 1266 ft 78 kts 41°
2026-05-04 11:46 51.63221 6.15242 1415 ft 77 kts 39°
2026-05-04 11:46 51.63609 6.15820 1549 ft 77 kts 41°
2026-05-04 11:46 51.64017 6.16399 1685 ft 77 kts 34°
2026-05-04 11:47 51.64400 6.16982 1824 ft 76 kts 44°
2026-05-04 11:47 51.64808 6.17639 1826 ft 90 kts 43°
2026-05-04 11:47 51.65225 6.18288 1992 ft 70 kts 38°
2026-05-04 11:47 51.65656 6.18860 1903 ft 85 kts 40°
2026-05-04 11:48 51.66099 6.19384 1961 ft 82 kts 26°
2026-05-04 11:48 51.66555 6.19946 1986 ft 79 kts 49°
2026-05-04 11:48 51.66787 6.20792 1907 ft 86 kts 77°
2026-05-04 11:48 51.66898 6.21758 1847 ft 86 kts 70°
2026-05-04 11:49 51.67100 6.22642 1757 ft 88 kts 65°
2026-05-04 11:49 51.67407 6.23517 1667 ft 88 kts 50°
2026-05-04 11:49 51.67685 6.24353 1658 ft 84 kts 74°
2026-05-04 11:49 51.67785 6.25270 1644 ft 83 kts 78°
2026-05-04 11:50 51.67865 6.26183 1643 ft 81 kts 78°
2026-05-04 11:50 51.67942 6.27058 1644 ft 78 kts 79°
2026-05-04 11:50 51.68048 6.27921 1643 ft 76 kts 72°
2026-05-04 11:50 51.68184 6.28744 1643 ft 75 kts 71°
2026-05-04 11:51 51.68324 6.29545 1646 ft 77 kts 71°
2026-05-04 11:51 51.68483 6.30425 1649 ft 85 kts 71°
2026-05-04 11:51 51.68638 6.31386 1647 ft 91 kts 75°
2026-05-04 11:51 51.68787 6.32413 1644 ft 95 kts 75°
2026-05-04 11:52 51.68934 6.33464 1644 ft 97 kts 76°
2026-05-04 11:52 51.69080 6.34533 1644 ft 99 kts 76°
2026-05-04 11:52 51.69221 6.35621 1645 ft 100 kts 76°
2026-05-04 11:52 51.69361 6.36719 1647 ft 101 kts 76°
2026-05-04 11:53 51.69498 6.37829 1646 ft 102 kts 76°
2026-05-04 11:53 51.69637 6.38952 1645 ft 102 kts 76°
2026-05-04 11:53 51.69776 6.40076 1644 ft 102 kts 76°
2026-05-04 11:53 51.69952 6.41175 1643 ft 101 kts 70°
2026-05-04 11:55 51.71793 6.48059 1639 ft 95 kts 61°
2026-05-04 11:55 51.72082 6.49015 1641 ft 95 kts 61°
2026-05-04 11:56 51.72370 6.49967 1645 ft 94 kts 61°
2026-05-04 11:56 51.72664 6.50918 1646 ft 94 kts 60°
2026-05-04 11:56 51.72973 6.51850 1649 ft 93 kts 59°
2026-05-04 11:56 51.73282 6.52772 1654 ft 93 kts 59°
2026-05-04 11:57 51.73588 6.53678 1652 ft 93 kts 59°
2026-05-04 11:57 51.73902 6.54603 1650 ft 93 kts 59°
2026-05-04 11:57 51.74214 6.55518 1647 ft 93 kts 59°
2026-05-04 11:57 51.74522 6.56427 1644 ft 92 kts 59°
2026-05-04 11:58 51.74829 6.57344 1641 ft 92 kts 59°
2026-05-04 11:58 51.75135 6.58271 1641 ft 93 kts 59°
2026-05-04 11:58 51.75439 6.59196 1640 ft 94 kts 59°
2026-05-04 11:58 51.75756 6.60118 1640 ft 94 kts 57°
2026-05-04 11:59 51.76083 6.61034 1642 ft 97 kts 57°
2026-05-04 11:59 51.76423 6.61983 1639 ft 97 kts 57°
2026-05-04 11:59 51.76761 6.62927 1636 ft 95 kts 57°
2026-05-04 11:59 51.77085 6.63838 1636 ft 92 kts 57°
2026-05-04 12:00 51.77400 6.64734 1637 ft 92 kts 57°
2026-05-04 12:00 51.77720 6.65630 1636 ft 91 kts 58°
2026-05-04 12:00 51.78042 6.66526 1637 ft 91 kts 58°
2026-05-04 12:00 51.78362 6.67411 1639 ft 92 kts 58°
2026-05-04 12:01 51.78685 6.68307 1636 ft 92 kts 58°
2026-05-04 12:01 51.79007 6.69207 1640 ft 92 kts 58°
2026-05-04 12:02 51.80911 6.74596 1641 ft 92 kts 58°
2026-05-04 12:03 51.81237 6.75500 1644 ft 93 kts 58°
2026-05-04 12:03 51.81562 6.76407 1648 ft 93 kts 58°
2026-05-04 12:03 51.81888 6.77324 1653 ft 94 kts 58°
2026-05-04 12:03 51.82211 6.78240 1658 ft 94 kts 58°
2026-05-04 12:04 51.82539 6.79173 1658 ft 95 kts 58°
2026-05-04 12:04 51.82864 6.80108 1655 ft 95 kts 58°
2026-05-04 12:04 51.83187 6.81042 1655 ft 95 kts 58°
2026-05-04 12:04 51.83512 6.81979 1655 ft 95 kts 58°
2026-05-04 12:05 51.83841 6.82925 1654 ft 96 kts 58°
2026-05-04 12:05 51.84163 6.83858 1655 ft 95 kts 58°
2026-05-04 12:05 51.84488 6.84800 1655 ft 95 kts 58°
2026-05-04 12:05 51.84813 6.85735 1655 ft 95 kts 58°
2026-05-04 12:06 51.85142 6.86681 1655 ft 95 kts 58°
2026-05-04 12:06 51.85465 6.87615 1655 ft 95 kts 58°
2026-05-04 12:06 51.85790 6.88554 1656 ft 95 kts 58°
2026-05-04 12:06 51.86115 6.89487 1658 ft 95 kts 58°
2026-05-04 12:07 51.86442 6.90428 1655 ft 96 kts 58°
2026-05-04 12:07 51.86772 6.91367 1650 ft 95 kts 58°
2026-05-04 12:07 51.87098 6.92294 1645 ft 95 kts 59°
2026-05-04 12:07 51.87417 6.93245 1641 ft 95 kts 59°
2026-05-04 12:08 51.87738 6.94159 1639 ft 94 kts 59°
2026-05-04 12:08 51.88070 6.95095 1640 ft 94 kts 58°
2026-05-04 12:08 51.88397 6.96014 1640 ft 94 kts 58°
2026-05-04 12:08 51.88722 6.96937 1640 ft 95 kts 58°
2026-05-04 12:09 51.89048 6.97877 1640 ft 94 kts 58°
2026-05-04 12:09 51.89366 6.98805 1641 ft 94 kts 58°
2026-05-04 12:09 51.89682 6.99733 1640 ft 94 kts 59°
2026-05-04 12:09 51.89995 7.00651 1640 ft 93 kts 59°
2026-05-04 12:10 51.90313 7.01577 1641 ft 94 kts 58°
2026-05-04 12:10 51.90643 7.02508 1641 ft 96 kts 58°
2026-05-04 12:10 51.90987 7.03449 1641 ft 97 kts 58°
2026-05-04 12:10 51.91334 7.04387 1640 ft 98 kts 58°
2026-05-04 12:11 51.91690 7.05342 1640 ft 98 kts 58°
2026-05-04 12:11 51.92043 7.06293 1640 ft 98 kts 58°
2026-05-04 12:11 51.92394 7.07239 1640 ft 99 kts 58°
2026-05-04 12:11 51.92744 7.08210 1640 ft 99 kts 58°
2026-05-04 12:12 51.93084 7.09171 1641 ft 99 kts 58°
2026-05-04 12:12 51.93422 7.10143 1640 ft 98 kts 59°
2026-05-04 12:12 51.93750 7.11109 1640 ft 98 kts 60°
2026-05-04 12:12 51.94072 7.12088 1640 ft 98 kts 59°
2026-05-04 12:13 51.94394 7.13063 1640 ft 98 kts 60°
2026-05-04 12:14 51.96674 7.19895 1647 ft 98 kts 62°
2026-05-04 12:15 51.96979 7.20883 1648 ft 99 kts 62°
2026-05-04 12:15 51.97284 7.21885 1647 ft 99 kts 62°
2026-05-04 12:15 51.97561 7.22923 1647 ft 100 kts 66°
2026-05-04 12:15 51.97813 7.23983 1647 ft 100 kts 67°
2026-05-04 12:16 51.98062 7.25036 1647 ft 100 kts 67°
2026-05-04 12:16 51.98331 7.26083 1647 ft 100 kts 65°
2026-05-04 12:16 51.98606 7.27121 1646 ft 100 kts 65°
2026-05-04 12:16 51.98880 7.28150 1646 ft 99 kts 65°
2026-05-04 12:17 51.99151 7.29164 1646 ft 99 kts 65°
2026-05-04 12:17 51.99438 7.30184 1647 ft 98 kts 62°
2026-05-04 12:17 51.99746 7.31161 1647 ft 98 kts 61°
2026-05-04 12:17 52.00064 7.32155 1646 ft 98 kts 61°
2026-05-04 12:18 52.00380 7.33141 1643 ft 98 kts 61°
2026-05-04 12:18 52.00688 7.34105 1641 ft 95 kts 61°
2026-05-04 12:18 52.00989 7.35051 1643 ft 93 kts 61°
2026-05-04 12:18 52.01286 7.35981 1644 ft 92 kts 60°
2026-05-04 12:19 52.01546 7.36937 1641 ft 92 kts 70°
2026-05-04 12:19 52.01681 7.37945 1637 ft 92 kts 79°
2026-05-04 12:19 52.01746 7.38968 1631 ft 91 kts 84°
2026-05-04 12:19 52.01770 7.39994 1597 ft 89 kts 85°
2026-05-04 12:20 52.01777 7.40983 1536 ft 86 kts 90°
2026-05-04 12:20 52.01747 7.41948 1478 ft 85 kts 91°
2026-05-04 12:20 52.01717 7.42897 1421 ft 84 kts 91°
2026-05-04 12:20 52.01688 7.43848 1362 ft 83 kts 91°
2026-05-04 12:21 52.01661 7.44782 1316 ft 81 kts 90°
2026-05-04 12:21 52.01635 7.45682 1321 ft 81 kts 89°
2026-05-04 12:21 52.01606 7.46610 1323 ft 82 kts 90°
2026-05-04 12:21 52.01579 7.47550 1325 ft 84 kts 89°
2026-05-04 12:22 52.01577 7.48498 1325 ft 85 kts 86°
2026-05-04 12:22 52.01597 7.49467 1325 ft 86 kts 84°
2026-05-04 12:22 52.01625 7.50441 1324 ft 87 kts 84°
2026-05-04 12:22 52.01651 7.51432 1324 ft 87 kts 84°
2026-05-04 12:23 52.01678 7.52417 1326 ft 88 kts 84°
2026-05-04 12:23 52.01723 7.53398 1330 ft 88 kts 80°
2026-05-04 12:23 52.01825 7.54386 1330 ft 88 kts 77°
2026-05-04 12:23 52.01944 7.55369 1329 ft 88 kts 76°
2026-05-04 12:24 52.02063 7.56344 1329 ft 88 kts 76°
2026-05-04 12:24 52.02185 7.57336 1333 ft 92 kts 76°
2026-05-04 12:24 52.02327 7.58379 1333 ft 96 kts 74°
2026-05-04 12:24 52.02559 7.59390 1329 ft 93 kts 60°
2026-05-04 12:25 52.02951 7.60163 1329 ft 86 kts 38°
2026-05-04 12:25 52.03428 7.60699 1329 ft 81 kts 28°
2026-05-04 12:25 52.03915 7.61124 1330 ft 78 kts 24°
2026-05-04 12:25 52.04408 7.61471 1329 ft 75 kts 20°
2026-05-04 12:26 52.04890 7.61774 1329 ft 73 kts 19°
2026-05-04 12:26 52.05353 7.62062 1329 ft 71 kts 19°
2026-05-04 12:26 52.05812 7.62345 1329 ft 69 kts 18°
2026-05-04 12:26 52.06249 7.62630 1330 ft 67 kts 21°
2026-05-04 12:27 52.06673 7.62943 1329 ft 65 kts 25°
2026-05-04 12:27 52.07055 7.63291 1324 ft 61 kts 25°
2026-05-04 12:27 52.07485 7.63640 1223 ft 77 kts 34°
2026-05-04 12:27 52.07921 7.64207 1122 ft 83 kts 38°
2026-05-04 12:28 52.08369 7.64824 1048 ft 83 kts 40°
2026-05-04 12:28 52.08738 7.65510 991 ft 79 kts 49°
2026-05-04 12:28 52.09101 7.66172 930 ft 78 kts 46°
2026-05-04 12:28 52.09449 7.66836 872 ft 76 kts 51°
2026-05-04 12:29 52.09769 7.67477 835 ft 73 kts 46°
2026-05-04 12:29 52.10096 7.68080 834 ft 68 kts 44°
2026-05-04 12:29 52.10420 7.68678 789 ft 72 kts 47°
2026-05-04 12:29 52.10766 7.69264 771 ft 68 kts 41°
2026-05-04 12:30 52.11094 7.69809 758 ft 68 kts 42°
2026-05-04 12:30 52.11436 7.70320 720 ft 67 kts 36°
2026-05-04 12:30 52.11829 7.70738 646 ft 69 kts 23°
2026-05-04 12:30 52.12278 7.71023 571 ft 67 kts
2026-05-04 12:31 52.12717 7.71166 537 ft 62 kts 356°
2026-05-04 12:31 52.13134 7.71175 506 ft 58 kts 347°
2026-05-04 12:31 52.13543 7.71016 434 ft 64 kts 326°
2026-05-04 12:31 52.13834 7.70500 358 ft 65 kts 267°
2026-05-04 12:32 52.13736 7.69765 227 ft 67 kts 246°
2026-05-04 12:32 52.13487 7.68588 161 ft 38 kts 252°
2026-05-04 12:32 52.13412 7.68288 161 ft 20 kts 220°
2026-05-04 12:33 52.13310 7.68291 161 ft 11 kts 158°
2026-05-04 12:33 52.13306 7.68294 161 ft 0 kts 158°
2026-05-04 12:33 52.13305 7.68294 161 ft 0 kts 158°
2026-05-04 12:33 52.13270 7.68315 161 ft 10 kts 159°
2026-05-04 12:34 52.13204 7.68344 161 ft 5 kts 209°
2026-05-04 12:34 52.13186 7.68286 161 ft 5 kts 234°
2026-05-04 12:34 52.13161 7.68275 161 ft 0 kts 217°
2026-05-04 12:34 52.13157 7.68265 161 ft 0 kts 262°
2026-05-04 12:35 52.13157 7.68235 161 ft 0 kts 271°